EDW70 LSZH-FIMP

Flight info

Callsign EDW70
Flight time N/A
Altitude 37000
Route DEGES Z2 XEBIX L607 ELMEM N606 GIRIS DCT NIVAS DCT PEVAL DCT AIOSA DCT LATAN DCT SALUN N705 BOPIX N710 TAKRI P751 LXR M999 SEDVA/N0489F390 M999 JDW G650 RASKA/N0491F380 G650 ULONI UG650 KONET/N0487F390 DCT XADOX DCT DWA UN304 EGSAP/N0482F410 UN304 APKAK/N0484F400 UN304 DENLI/N0483F410 UN304 MAEVA UL433 APKOT DCT TIBAG TIBAG2E
Aircraft A359/H-SABDE2E3GHIJ2J3J4J5M1P2RWXYZ/LB1D1

Departure

Time N/A
Airport Zürich Airport (LSZH)

Arrival

Time 2026-04-29 08:39
Airport Sir Seewoosagur Ramgoolam International Airport (FIMP)
Time Latitude Longitude Altitude Speed Heading
2026-04-29 07:31 -15.41000 52.90175 36925 ft 473 kts 156°
2026-04-29 07:31 -15.44010 52.91563 36925 ft 473 kts 156°
2026-04-29 07:31 -15.50024 52.94336 36926 ft 473 kts 156°
2026-04-29 07:32 -15.56040 52.97113 36926 ft 473 kts 156°
2026-04-29 07:32 -15.62042 52.99884 36927 ft 473 kts 156°
2026-04-29 07:33 -15.68051 53.02661 36923 ft 472 kts 156°
2026-04-29 07:33 -15.74049 53.05435 36925 ft 472 kts 156°
2026-04-29 07:34 -15.80056 53.08215 36928 ft 472 kts 156°
2026-04-29 07:34 -15.86050 53.10990 36930 ft 472 kts 156°
2026-04-29 07:35 -15.92043 53.13766 36931 ft 472 kts 156°
2026-04-29 07:35 -15.98039 53.16546 36931 ft 472 kts 156°
2026-04-29 07:36 -16.04025 53.19323 36928 ft 472 kts 156°
2026-04-29 07:36 -16.10019 53.22105 36931 ft 472 kts 157°
2026-04-29 07:37 -16.16009 53.24888 36930 ft 472 kts 157°
2026-04-29 07:37 -16.21999 53.27672 36930 ft 471 kts 157°
2026-04-29 07:38 -16.27987 53.30458 36932 ft 471 kts 157°
2026-04-29 07:38 -16.33974 53.33245 36937 ft 471 kts 157°
2026-04-29 07:39 -16.39734 53.36496 36934 ft 473 kts 145°
2026-04-29 07:39 -16.44682 53.41044 36936 ft 476 kts 138°
2026-04-29 07:40 -16.49394 53.45899 36934 ft 477 kts 137°
2026-04-29 07:40 -16.54069 53.50805 36933 ft 477 kts 137°
2026-04-29 07:41 -16.58752 53.55692 36933 ft 477 kts 137°
2026-04-29 07:41 -16.63450 53.60571 36936 ft 477 kts 137°
2026-04-29 07:42 -16.68155 53.65451 36941 ft 477 kts 137°
2026-04-29 07:42 -16.72855 53.70331 36939 ft 477 kts 137°
2026-04-29 07:43 -16.77557 53.75216 36936 ft 477 kts 137°
2026-04-29 07:43 -16.82253 53.80101 36939 ft 477 kts 137°
2026-04-29 07:44 -16.86923 53.84962 36941 ft 477 kts 137°
2026-04-29 07:44 -16.91620 53.89854 36938 ft 477 kts 137°
2026-04-29 07:45 -16.96316 53.94749 36939 ft 477 kts 137°
2026-04-29 07:45 -17.01014 53.99650 36942 ft 477 kts 137°
2026-04-29 07:46 -17.05705 54.04547 36942 ft 477 kts 137°
2026-04-29 07:46 -17.10395 54.09447 36941 ft 477 kts 137°
2026-04-29 07:47 -17.15089 54.14354 36941 ft 477 kts 137°
2026-04-29 07:47 -17.19787 54.19270 36946 ft 478 kts 137°
2026-04-29 07:48 -17.24486 54.24191 36946 ft 478 kts 137°
2026-04-29 07:48 -17.29182 54.29112 36946 ft 478 kts 137°
2026-04-29 07:49 -17.33882 54.34041 36946 ft 478 kts 137°
2026-04-29 07:49 -17.38580 54.38971 36947 ft 478 kts 137°
2026-04-29 07:50 -17.43277 54.43905 36947 ft 478 kts 137°
2026-04-29 07:50 -17.47973 54.48841 36951 ft 478 kts 137°
2026-04-29 07:51 -17.52640 54.53751 36950 ft 479 kts 137°
2026-04-29 07:51 -17.57339 54.58697 36950 ft 479 kts 137°
2026-04-29 07:52 -17.62040 54.63650 36952 ft 479 kts 137°
2026-04-29 07:52 -17.66735 54.68601 36952 ft 479 kts 137°
2026-04-29 07:53 -17.71429 54.73555 36952 ft 479 kts 137°
2026-04-29 07:53 -17.76123 54.78512 36952 ft 479 kts 137°
2026-04-29 07:54 -17.80818 54.83474 36953 ft 479 kts 137°
2026-04-29 07:54 -17.85507 54.88434 36952 ft 479 kts 137°
2026-04-29 07:55 -17.90169 54.93369 36952 ft 479 kts 137°
2026-04-29 07:55 -17.94888 54.98368 36958 ft 479 kts 137°
2026-04-29 07:56 -17.99541 55.03302 36958 ft 479 kts 137°
2026-04-29 07:56 -18.04225 55.08273 36958 ft 479 kts 137°
2026-04-29 07:57 -18.08893 55.13231 36456 ft 474 kts 137°
2026-04-29 07:57 -18.11208 55.15692 35793 ft 473 kts 137°
2026-04-29 07:57 -18.13520 55.18150 35110 ft 472 kts 137°
2026-04-29 07:58 -18.15831 55.20608 34407 ft 472 kts 137°
2026-04-29 07:58 -18.18140 55.23063 33680 ft 473 kts 137°
2026-04-29 07:58 -18.20452 55.25523 32852 ft 474 kts 137°
2026-04-29 07:58 -18.22772 55.27993 31974 ft 476 kts 137°
2026-04-29 07:59 -18.25113 55.30484 31109 ft 478 kts 136°
2026-04-29 07:59 -18.27441 55.32965 30403 ft 477 kts 136°
2026-04-29 07:59 -18.29770 55.35449 29734 ft 474 kts 136°
2026-04-29 07:59 -18.32078 55.37912 29048 ft 471 kts 136°
2026-04-29 08:00 -18.34366 55.40355 28413 ft 466 kts 136°
2026-04-29 08:00 -18.36632 55.42774 27809 ft 462 kts 136°
2026-04-29 08:00 -18.38873 55.45170 27191 ft 457 kts 136°
2026-04-29 08:00 -18.41095 55.47544 26605 ft 453 kts 135°
2026-04-29 08:01 -18.43290 55.49894 26015 ft 449 kts 135°
2026-04-29 08:01 -18.45339 55.52369 25416 ft 447 kts 128°
2026-04-29 08:01 -18.47057 55.55084 24808 ft 445 kts 121°
2026-04-29 08:01 -18.48373 55.58021 24216 ft 443 kts 112°
2026-04-29 08:02 -18.49235 55.61127 23662 ft 441 kts 103°
2026-04-29 08:02 -18.49753 55.64298 23022 ft 438 kts 100°
2026-04-29 08:02 -18.50190 55.67460 22336 ft 435 kts 100°
2026-04-29 08:02 -18.50618 55.70601 21667 ft 431 kts 99°
2026-04-29 08:03 -18.51043 55.73716 21017 ft 428 kts 99°
2026-04-29 08:03 -18.51325 55.75767 20597 ft 426 kts 99°
2026-04-29 08:03 -18.51884 55.79832 19771 ft 421 kts 99°
2026-04-29 08:03 -18.52303 55.82877 19134 ft 419 kts 99°
2026-04-29 08:04 -18.52720 55.85904 18545 ft 416 kts 99°
2026-04-29 08:04 -18.53133 55.88906 17925 ft 412 kts 99°
2026-04-29 08:04 -18.53541 55.91874 17319 ft 407 kts 99°
2026-04-29 08:04 -18.53944 55.94808 17033 ft 404 kts 99°
2026-04-29 08:05 -18.54216 55.96788 16959 ft 404 kts 99°
2026-04-29 08:05 -18.54618 55.99721 16963 ft 404 kts 98°
2026-04-29 08:05 -18.55019 56.02648 16978 ft 404 kts 98°
2026-04-29 08:05 -18.55411 56.05513 16686 ft 397 kts 99°
2026-04-29 08:06 -18.55803 56.08384 15993 ft 395 kts 99°
2026-04-29 08:06 -18.56193 56.11240 15330 ft 393 kts 98°
2026-04-29 08:06 -18.56580 56.14085 14694 ft 391 kts 98°
2026-04-29 08:06 -18.56964 56.16906 14214 ft 386 kts 98°
2026-04-29 08:07 -18.57345 56.19701 14014 ft 385 kts 98°
2026-04-29 08:07 -18.57725 56.22502 13975 ft 386 kts 98°
2026-04-29 08:07 -18.58106 56.25303 13971 ft 386 kts 98°
2026-04-29 08:07 -18.58485 56.28105 13973 ft 386 kts 98°
2026-04-29 08:08 -18.58864 56.30900 13978 ft 386 kts 98°
2026-04-29 08:08 -18.59243 56.33700 13970 ft 386 kts 98°
2026-04-29 08:08 -18.59658 56.36497 13975 ft 385 kts 102°
2026-04-29 08:08 -18.60447 56.39176 13795 ft 384 kts 114°
2026-04-29 08:09 -18.61840 56.41568 13537 ft 384 kts 130°
2026-04-29 08:09 -18.63843 56.43406 13279 ft 384 kts 147°
2026-04-29 08:09 -18.66174 56.44771 13035 ft 383 kts 152°
2026-04-29 08:09 -18.68544 56.46039 12781 ft 381 kts 153°
2026-04-29 08:10 -18.70903 56.47294 12523 ft 379 kts 153°
2026-04-29 08:10 -18.73256 56.48547 12273 ft 378 kts 153°
2026-04-29 08:10 -18.75597 56.49796 12056 ft 377 kts 153°
2026-04-29 08:10 -18.77935 56.51046 11807 ft 375 kts 153°
2026-04-29 08:11 -18.80262 56.52291 11555 ft 374 kts 153°
2026-04-29 08:11 -18.82583 56.53534 11320 ft 374 kts 153°
2026-04-29 08:11 -18.84897 56.54773 11079 ft 373 kts 153°
2026-04-29 08:11 -18.87206 56.56010 10848 ft 372 kts 153°
2026-04-29 08:12 -18.89511 56.57246 10618 ft 371 kts 153°
2026-04-29 08:12 -18.91810 56.58479 10388 ft 370 kts 153°
2026-04-29 08:12 -18.94097 56.59706 10162 ft 369 kts 153°
2026-04-29 08:12 -18.96383 56.60932 9929 ft 367 kts 153°
2026-04-29 08:13 -18.98620 56.62133 9742 ft 353 kts 153°
2026-04-29 08:13 -19.00770 56.63287 9485 ft 339 kts 153°
2026-04-29 08:13 -19.02831 56.64394 9231 ft 326 kts 153°
2026-04-29 08:13 -19.04810 56.65457 9013 ft 313 kts 152°
2026-04-29 08:14 -19.06713 56.66480 8804 ft 301 kts 152°
2026-04-29 08:14 -19.08559 56.67472 8494 ft 294 kts 152°
2026-04-29 08:14 -19.10360 56.68441 8234 ft 289 kts 152°
2026-04-29 08:14 -19.12148 56.69402 8023 ft 288 kts 152°
2026-04-29 08:15 -19.13933 56.70363 7772 ft 287 kts 152°
2026-04-29 08:15 -19.15710 56.71319 7528 ft 286 kts 152°
2026-04-29 08:15 -19.17478 56.72271 7299 ft 285 kts 152°
2026-04-29 08:15 -19.19242 56.73221 7070 ft 284 kts 152°
2026-04-29 08:16 -19.21003 56.74169 6986 ft 284 kts 152°
2026-04-29 08:16 -19.22766 56.75118 6981 ft 284 kts 152°
2026-04-29 08:16 -19.24523 56.76064 6982 ft 284 kts 152°
2026-04-29 08:16 -19.26261 56.77001 6981 ft 284 kts 152°
2026-04-29 08:17 -19.28019 56.77948 6984 ft 284 kts 152°
2026-04-29 08:17 -19.29801 56.78909 6980 ft 284 kts 152°
2026-04-29 08:17 -19.31558 56.79857 6981 ft 284 kts 152°
2026-04-29 08:17 -19.33315 56.80804 6983 ft 284 kts 152°
2026-04-29 08:18 -19.35050 56.81740 6982 ft 284 kts 152°
2026-04-29 08:18 -19.36811 56.82690 6986 ft 284 kts 152°
2026-04-29 08:18 -19.38571 56.83640 6985 ft 284 kts 152°
2026-04-29 08:18 -19.40310 56.84579 6731 ft 279 kts 152°
2026-04-29 08:19 -19.42044 56.85515 6277 ft 280 kts 152°
2026-04-29 08:19 -19.43778 56.86452 6035 ft 280 kts 152°
2026-04-29 08:19 -19.45520 56.87393 5987 ft 281 kts 151°
2026-04-29 08:19 -19.47265 56.88336 5984 ft 281 kts 152°
2026-04-29 08:20 -19.49001 56.89275 5983 ft 280 kts 152°
2026-04-29 08:20 -19.50742 56.90215 5984 ft 281 kts 152°
2026-04-29 08:20 -19.52479 56.91154 5983 ft 280 kts 152°
2026-04-29 08:20 -19.54218 56.92095 5986 ft 281 kts 152°
2026-04-29 08:21 -19.55959 56.93037 5985 ft 281 kts 151°
2026-04-29 08:21 -19.57696 56.93977 5988 ft 281 kts 152°
2026-04-29 08:21 -19.59434 56.94918 5988 ft 280 kts 152°
2026-04-29 08:21 -19.61171 56.95858 5988 ft 280 kts 152°
2026-04-29 08:22 -19.62910 56.96801 5987 ft 281 kts 152°
2026-04-29 08:22 -19.64647 56.97742 5987 ft 281 kts 152°
2026-04-29 08:22 -19.66386 56.98684 5988 ft 280 kts 152°
2026-04-29 08:22 -19.68120 56.99624 5987 ft 280 kts 152°
2026-04-29 08:23 -19.69855 57.00564 5988 ft 280 kts 152°
2026-04-29 08:23 -19.71591 57.01505 5988 ft 280 kts 152°
2026-04-29 08:23 -19.73329 57.02447 5989 ft 281 kts 151°
2026-04-29 08:23 -19.75069 57.03392 5988 ft 281 kts 152°
2026-04-29 08:24 -19.76807 57.04335 5986 ft 281 kts 152°
2026-04-29 08:24 -19.78549 57.05280 5987 ft 281 kts 151°
2026-04-29 08:24 -19.80289 57.06225 5990 ft 281 kts 151°
2026-04-29 08:24 -19.82028 57.07169 5992 ft 281 kts 151°
2026-04-29 08:25 -19.83768 57.08114 5994 ft 281 kts 151°
2026-04-29 08:25 -19.85509 57.09060 5992 ft 281 kts 151°
2026-04-29 08:25 -19.87247 57.10005 5989 ft 281 kts 152°
2026-04-29 08:25 -19.88987 57.10950 5989 ft 281 kts 151°
2026-04-29 08:26 -19.90707 57.11885 5987 ft 281 kts 151°
2026-04-29 08:26 -19.92449 57.12833 5991 ft 281 kts 152°
2026-04-29 08:26 -19.94184 57.13777 5991 ft 280 kts 152°
2026-04-29 08:26 -19.95923 57.14723 5991 ft 280 kts 152°
2026-04-29 08:27 -19.97657 57.15666 5990 ft 280 kts 152°
2026-04-29 08:27 -19.99392 57.16610 5990 ft 280 kts 151°
2026-04-29 08:27 -20.01130 57.17557 5989 ft 281 kts 151°
2026-04-29 08:27 -20.02872 57.18506 5992 ft 281 kts 151°
2026-04-29 08:28 -20.04604 57.19449 5988 ft 280 kts 151°
2026-04-29 08:28 -20.06342 57.20397 5989 ft 280 kts 151°
2026-04-29 08:28 -20.08077 57.21342 5989 ft 280 kts 151°
2026-04-29 08:28 -20.09810 57.22287 5991 ft 281 kts 151°
2026-04-29 08:29 -20.11552 57.23237 5992 ft 281 kts 151°
2026-04-29 08:29 -20.13289 57.24184 5989 ft 280 kts 151°
2026-04-29 08:29 -20.15024 57.25131 5991 ft 280 kts 152°
2026-04-29 08:29 -20.16755 57.26076 5991 ft 280 kts 151°
2026-04-29 08:30 -20.18485 57.27023 5991 ft 280 kts 150°
2026-04-29 08:30 -20.21284 57.29789 5996 ft 276 kts 124°
2026-04-29 08:30 -20.22380 57.31432 5827 ft 267 kts 123°
2026-04-29 08:31 -20.23420 57.33016 5708 ft 255 kts 123°
2026-04-29 08:31 -20.24404 57.34518 5581 ft 239 kts 122°
2026-04-29 08:31 -20.25326 57.35917 5422 ft 224 kts 122°
2026-04-29 08:31 -20.26196 57.37234 5221 ft 212 kts 123°
2026-04-29 08:32 -20.27029 57.38494 4987 ft 206 kts 123°
2026-04-29 08:32 -20.27852 57.39723 4715 ft 202 kts 122°
2026-04-29 08:32 -20.28667 57.40929 4426 ft 200 kts 123°
2026-04-29 08:32 -20.29485 57.42132 4118 ft 201 kts 123°
2026-04-29 08:33 -20.30295 57.43319 4013 ft 200 kts 122°
2026-04-29 08:33 -20.31128 57.44529 4008 ft 200 kts 125°
2026-04-29 08:33 -20.31991 57.45677 3994 ft 199 kts 120°
2026-04-29 08:33 -20.32685 57.46947 4000 ft 199 kts 115°
2026-04-29 08:34 -20.33325 57.48239 3848 ft 197 kts 115°
2026-04-29 08:34 -20.33947 57.49520 3653 ft 193 kts 113°
2026-04-29 08:34 -20.34556 57.50785 3438 ft 189 kts 115°
2026-04-29 08:34 -20.35155 57.52010 3257 ft 183 kts 113°
2026-04-29 08:35 -20.35724 57.53171 3181 ft 168 kts 114°
2026-04-29 08:35 -20.36237 57.54222 3106 ft 152 kts 113°
2026-04-29 08:35 -20.36698 57.55177 2992 ft 140 kts 111°
2026-04-29 08:35 -20.37134 57.56090 2810 ft 138 kts 111°
2026-04-29 08:36 -20.37569 57.57001 2599 ft 137 kts 111°
2026-04-29 08:36 -20.38000 57.57900 2384 ft 135 kts 109°
2026-04-29 08:36 -20.38423 57.58783 2150 ft 132 kts 110°
2026-04-29 08:36 -20.38835 57.59642 1969 ft 129 kts 111°
2026-04-29 08:37 -20.39243 57.60492 1785 ft 129 kts 111°
2026-04-29 08:37 -20.39653 57.61346 1601 ft 131 kts 112°
2026-04-29 08:37 -20.40070 57.62214 1394 ft 131 kts 112°
2026-04-29 08:37 -20.40488 57.63082 1200 ft 131 kts 112°
2026-04-29 08:38 -20.40903 57.63948 1001 ft 132 kts 111°
2026-04-29 08:38 -20.41316 57.64810 805 ft 131 kts 113°
2026-04-29 08:38 -20.41736 57.65685 619 ft 133 kts 113°
2026-04-29 08:38 -20.42160 57.66562 400 ft 133 kts 116°
2026-04-29 08:39 -20.42574 57.67412 223 ft 128 kts 116°
2026-04-29 08:39 -20.42938 57.68173 196 ft 88 kts 117°
2026-04-29 08:39 -20.43090 57.68461 198 ft 17 kts 152°
2026-04-29 08:39 -20.43188 57.68436 202 ft 15 kts 217°
2026-04-29 08:40 -20.43277 57.68366 194 ft 16 kts 231°
2026-04-29 08:40 -20.43259 57.68265 202 ft 13 kts 301°
2026-04-29 08:40 -20.43215 57.68184 204 ft 13 kts 295°
2026-04-29 08:40 -20.43173 57.68088 207 ft 16 kts 295°
2026-04-29 08:41 -20.43121 57.67971 205 ft 19 kts 295°
2026-04-29 08:41 -20.43059 57.67834 207 ft 22 kts 300°
2026-04-29 08:41 -20.43053 57.67731 206 ft 4 kts 208°
2026-04-29 08:41 -20.43083 57.67713 206 ft 7 kts 207°
2026-04-29 08:42 -20.43095 57.67706 200 ft 0 kts 207°